EW7946 Weather Reports


time (UTC)temp
F
wind
direction
speed
knots
gust
knots
rain 1hr
in
rain 24hr
in
rain mn
in
humidity
%
barometer
mb
20260503212334 59 231 1.7 6.1 0.00 0.00 0.00 54 1017.0
20260503211320 59 221 1.7 3.5 0.00 0.00 0.00 54 1016.9
20260503210339 60 255 0.9 3.5 0.00 0.00 0.00 56 1016.9
20260503205336 60 219 1.7 2.6 0.00 0.00 0.00 58 1016.9
20260503204330 61 221 0.9 2.6 0.00 0.00 0.00 59 1016.9
20260503203355 61 238 0.0 1.7 0.00 0.00 0.00 59 1016.8
20260503202347 61 217 1.7 3.5 0.00 0.00 0.00 60 1016.8
20260503201326 62 160 0.0 0.0 0.00 0.00 0.00 60 1016.8
20260503200334 62 160 0.0 0.0 0.00 0.00 0.00 61 1016.8
20260503195335 63 160 0.0 0.0 0.00 0.00 0.00 62 1016.8
20260503194354 64 160 0.0 0.0 0.00 0.00 0.00 62 1016.8
20260503193337 64 160 0.0 0.0 0.00 0.00 0.00 62 1016.8
20260503192326 65 160 0.0 0.0 0.00 0.00 0.00 61 1016.8
20260503191333 66 160 0.0 0.0 0.00 0.00 0.00 60 1016.6
20260503190345 66 160 0.0 0.0 0.00 0.00 0.00 60 1016.6
20260503185327 66 185 0.0 0.0 0.00 0.00 0.00 60 1016.6
20260503184322 66 185 0.0 0.0 0.00 0.00 0.00 60 1016.5
20260503183346 67 186 0.0 0.0 0.00 0.00 0.00 60 1016.4
20260503182323 67 185 0.0 1.7 0.00 0.00 0.00 60 1016.4
20260503181323 67 228 0.9 1.7 0.00 0.00 0.00 61 1016.4
20260503180346 68 198 0.9 3.5 0.00 0.00 0.00 61 1016.3
20260503175359 68 115 1.7 3.5 0.00 0.00 0.00 60 1016.2
20260503174324 68 107 1.7 4.3 0.00 0.00 0.00 61 1016.2
20260503173348 68 103 2.6 6.1 0.00 0.00 0.00 60 1016.3
20260503172341 68 60 2.6 6.1 0.00 0.00 0.00 61 1016.3
20260503171343 68 129 2.6 7.8 0.00 0.00 0.00 61 1016.4
20260503170345 68 120 3.5 7.0 0.00 0.00 0.00 60 1016.4
20260503150332 68 70 4.3 11.3 0.00 0.00 0.00 58 1017.2
20260503131343 68 97 4.3 7.8 0.00 0.00 0.00 50 1018.1
20260503130343 67 68 3.5 7.8 0.00 0.00 0.00 46 1018.3
20260503110401 70 94 5.2 8.7 0.00 0.00 0.00 60 1018.6
20260503090347 72 69 2.6 5.2 0.00 0.00 0.00 47 1019.6
20260503081324 70 233 1.7 7.0 0.00 0.00 0.00 48 1019.8
20260503080352 69 221 3.5 7.8 0.00 0.00 0.00 49 1019.9
20260503072324 66 207 0.9 5.2 0.00 0.00 0.00 53 1019.8
20260503071320 65 205 2.6 5.2 0.00 0.00 0.00 55 1019.9
20260503070349 63 219 4.3 8.7 0.00 0.00 0.00 56 1019.9
20260503060337 56 231 4.3 9.6 0.00 0.00 0.00 62 1019.9
20260503054326 55 252 4.3 7.8 0.00 0.00 0.00 61 1019.8
20260503053341 54 204 4.3 8.7 0.00 0.00 0.00 58 1019.7
20260503052327 53 221 3.5 9.6 0.00 0.00 0.00 56 1019.7
20260503051356 53 224 3.5 7.0 0.00 0.00 0.00 54 1019.7
20260503050347 52 195 3.5 7.8 0.00 0.00 0.00 52 1019.6
20260503045322 52 234 3.5 7.8 0.00 0.00 0.00 50 1019.6
20260503044338 51 223 5.2 9.6 0.00 0.00 0.00 50 1019.6
20260503043414 0 0.0 0.0 0.00 0.00 0.00 1019.6
20260503042335 0 0.0 0.0 0.00 0.00 0.00 1019.5
20260503040331 0 0.0 0.0 0.00 0.00 0.00 1019.5
20260503035354 0 0.0 0.0 0.00 0.00 0.00 1019.5
20260503034436 0 0.0 0.0 0.00 0.00 0.00 1019.5
20260503033351 0 0.0 0.0 0.00 0.00 0.00 1019.6
20260503031323 50 190 5.2 8.7 0.00 0.00 0.00 43 1019.5
20260503030336 50 203 4.3 7.8 0.00 0.00 0.00 43 1019.6
20260503025359 50 221 5.2 8.7 0.00 0.00 0.00 43 1019.7
20260503024325 50 235 3.5 6.1 0.00 0.00 0.00 44 1019.7
20260503023358 50 230 4.3 7.0 0.00 0.00 0.00 44 1019.7
20260503022359 50 221 4.3 7.0 0.00 0.00 0.00 44 1019.8
20260503021411 50 226 4.3 7.0 0.00 0.00 0.00 45 1019.8
20260503020350 50 220 4.3 7.0 0.00 0.00 0.00 46 1019.9
20260503015325 50 255 3.5 7.0 0.00 0.00 0.00 46 1019.9
20260503014344 50 199 4.3 8.7 0.00 0.00 0.00 45 1019.8
20260503013351 50 218 2.6 7.8 0.00 0.00 0.00 46 1019.9
20260503012331 50 251 4.3 7.8 0.00 0.00 0.00 46 1019.9
20260503011319 50 219 2.6 6.1 0.00 0.00 0.00 47 1020.1
20260503010329 50 233 2.6 6.1 0.00 0.00 0.00 47 1020.2
20260503005333 50 210 2.6 7.0 0.00 0.00 0.00 47 1020.2
20260503004338 50 195 3.5 7.0 0.00 0.00 0.00 49 1020.3
20260503003338 51 225 2.6 6.1 0.00 0.00 0.00 51 1020.5
20260503002340 51 193 1.7 6.1 0.00 0.00 0.00 51 1020.5
20260503001325 51 224 3.5 7.0 0.00 0.00 0.00 51 1020.6
20260503000338 51 246 3.5 6.1 0.00 0.00 0.00 52 1020.8
20260502235431 51 225 2.6 6.1 0.00 0.00 0.00 51 1020.8
20260502234332 51 250 2.6 7.0 0.00 0.00 0.00 52 1020.9
20260502233346 52 200 3.5 7.8 0.00 0.00 0.00 52 1020.9
20260502232323 52 198 2.6 7.0 0.00 0.00 0.00 53 1021.0
20260502231331 52 210 3.5 8.7 0.00 0.00 0.00 53 1021.0
20260502230345 52 221 2.6 6.1 0.00 0.00 0.00 54 1021.2
20260502225320 52 198 3.5 6.1 0.00 0.00 0.00 55 1021.2
20260502224333 52 196 2.6 7.8 0.00 0.00 0.00 55 1021.3
20260502223407 53 229 3.5 7.8 0.00 0.00 0.00 56 1021.4
20260502222329 53 227 3.5 7.0 0.00 0.00 0.00 57 1021.4
20260502221359 53 251 3.5 6.1 0.00 0.00 0.00 58 1021.4
20260502220333 53 215 0.9 3.5 0.00 0.00 0.00 60 1021.5
20260502215320 54 207 1.7 4.3 0.00 0.00 0.00 60 1021.5
20260502214346 54 227 1.7 4.3 0.00 0.00 0.00 60 1021.6
20260502213334 54 220 1.7 4.3 0.00 0.00 0.00 61 1021.6